Tracking 28790 objects as of 19-Apr-2024
HD Live streaming from Space Station
objects crossing your sky now

NINGXIA-1 10

Track NINGXIA-1 10 now!
10-day predictions


NORAD ID: 49022
Int'l Code: 2021-064E
Perigee: 867.4 km
Apogee: 877.6 km
Inclination: 45.0 °
Period: 102.3 minutes
Semi major axis: 7243 km
RCS: Unknown
Launch date: July 9, 2021
Source: People's Republic of China (PRC)
Launch site: Taiyaun Space Center, China (TSC)
Your satellite tracking list
Your tracking list is empty




NASA's NSSDC Master Catalog

Two Line Element Set (TLE):
1 49022U 21064E   24110.49535889  .00000148  00000-0  16254-3 0  9993
2 49022  44.9995 188.8825 0007036  89.8142 270.3501 14.08244893143062
Source of the keplerian elements: AFSPC